• In Russia
  • List of Countries
  • For 7 days
  • Water Temperature
  • Satellite Maps
  • Weather Map
  • Weather Widgets
  • user-avatar
    Login

    Hourly Weather Mazari Sharif

    Today, 15 December, Saturday

    Time Temperature Precipitation Wind Pressure Humidity
    00:00 +6°C° 0 mm 1 mps 659 mmHg 24%
    01:00 +5°C° 0 mm 1 mps 659 mmHg 25%
    02:00 +5°C° 0 mm 1 mps 659 mmHg 26%
    03:00 +5°C° 0 mm 1 mps 658 mmHg 26%
    04:00 +5°C° 0 mm 1 mps 658 mmHg 27%
    05:00 +5°C° 0 mm 1 mps 658 mmHg 27%
    06:00 +4°C° 0 mm 2 mps 658 mmHg 26%
    07:00 +4°C° 0 mm 2 mps 658 mmHg 26%
    08:00 +6°C° 0 mm 2 mps 659 mmHg 22%
    09:00 +8°C° 0 mm 2 mps 659 mmHg 19%
    10:00 +10°C° 0 mm 2 mps 660 mmHg 16%
    11:00 +12°C° 0 mm 2 mps 659 mmHg 15%
    12:00 +13°C° 0 mm 2 mps 659 mmHg 15%
    13:00 +13°C° 0 mm 2 mps 659 mmHg 14%
    14:00 +12°C° 0 mm 2 mps 659 mmHg 18%
    15:00 +11°C° 0 mm 1 mps 658 mmHg 21%
    16:00 +10°C° 0 mm 1 mps 658 mmHg 25%
    17:00 +9°C° 0 mm 1 mps 658 mmHg 25%
    18:00 +8°C° 0 mm 1 mps 658 mmHg 25%
    19:00 +7°C° 0 mm 1 mps 659 mmHg 25%
    20:00 +7°C° 0 mm 1 mps 659 mmHg 25%
    21:00 +7°C° 0 mm 1 mps 659 mmHg 25%
    22:00 +6°C° 0 mm 1 mps 659 mmHg 25%
    23:00 +6°C° 0 mm 1 mps 659 mmHg 27%

    Tomorrow, 16 December, Sunday

    Time Temperature Precipitation Wind Pressure Humidity
    00:00 +5°C° 0 mm 2 mps 660 mmHg 29%
    01:00 +5°C° 0 mm 2 mps 660 mmHg 31%
    02:00 +4°C° 0 mm 2 mps 660 mmHg 35%
    03:00 +4°C° 0 mm 2 mps 660 mmHg 39%
    04:00 +3°C° 0 mm 2 mps 660 mmHg 44%
    05:00 +3°C° 0 mm 2 mps 661 mmHg 46%
    06:00 +4°C° 0 mm 1 mps 661 mmHg 48%
    07:00 +3°C° 0 mm 1 mps 661 mmHg 50%
    08:00 +5°C° 0 mm 1 mps 662 mmHg 45%
    09:00 +7°C° 0 mm 1 mps 662 mmHg 40%
    10:00 +8°C° 0 mm 1 mps 663 mmHg 35%
    11:00 +8°C° 0 mm 2 mps 662 mmHg 34%
    12:00 +9°C° 0 mm 2 mps 662 mmHg 33%
    13:00 +9°C° 0 mm 2 mps 661 mmHg 32%
    14:00 +8°C° 0 mm 2 mps 661 mmHg 34%
    15:00 +8°C° 0 mm 2 mps 660 mmHg 36%
    16:00 +7°C° 0 mm 2 mps 660 mmHg 38%
    17:00 +7°C° 0 mm 2 mps 660 mmHg 38%
    18:00 +7°C° 0 mm 1 mps 660 mmHg 39%
    19:00 +6°C° 0 mm 1 mps 659 mmHg 39%
    20:00 +6°C° 0 mm 1 mps 659 mmHg 37%
    21:00 +6°C° 0 mm 1 mps 659 mmHg 35%
    22:00 +6°C° 0 mm 1 mps 659 mmHg 34%
    23:00 +4°C° 0 mm 2 mps 659 mmHg 32%

    Day after tomorrow, 17 December, Monday

    Time Temperature Precipitation Wind Pressure Humidity
    00:00 +4°C° 0 mm 2 mps 659 mmHg 31%
    01:00 +4°C° 0 mm 2 mps 659 mmHg 30%
    02:00 +4°C° 0 mm 2 mps 658 mmHg 29%
    03:00 +4°C° 0 mm 2 mps 658 mmHg 27%
    04:00 +4°C° 0 mm 2 mps 658 mmHg 26%
    05:00 +4°C° 0 mm 2 mps 659 mmHg 25%
    06:00 +4°C° 0 mm 2 mps 659 mmHg 25%
    07:00 +4°C° 0 mm 2 mps 659 mmHg 24%
    08:00 +6°C° 0 mm 2 mps 660 mmHg 21%
    09:00 +10°C° 0 mm 1 mps 661 mmHg 18%
    10:00 +12°C° 0 mm 1 mps 661 mmHg 15%
    11:00 +12°C° 0 mm 1 mps 661 mmHg 15%
    12:00 +13°C° 0 mm 1 mps 661 mmHg 15%
    13:00 +13°C° 0 mm 2 mps 660 mmHg 15%
    14:00 +12°C° 0 mm 2 mps 660 mmHg 19%
    15:00 +11°C° 0 mm 1 mps 660 mmHg 22%
    16:00 +10°C° 0 mm 1 mps 659 mmHg 26%
    17:00 +9°C° 0 mm 1 mps 659 mmHg 27%
    18:00 +8°C° 0 mm 1 mps 659 mmHg 28%
    19:00 +7°C° 0 mm 1 mps 659 mmHg 29%
    20:00 +7°C° 0 mm 1 mps 659 mmHg 28%
    21:00 +7°C° 0 mm 1 mps 659 mmHg 28%
    22:00 +6°C° 0 mm 1 mps 659 mmHg 27%
    23:00 +5°C° 0 mm 2 mps 659 mmHg 27%

    18 December, Tuesday

    Time Temperature Precipitation Wind Pressure Humidity
    00:00 +5°C° 0 mm 2 mps 658 mmHg 27%
    01:00 +5°C° 0 mm 2 mps 658 mmHg 26%
    02:00 +4°C° 0 mm 2 mps 658 mmHg 26%
    03:00 +4°C° 0 mm 2 mps 658 mmHg 26%
    04:00 +4°C° 0 mm 2 mps 657 mmHg 26%
    05:00 +4°C° 0 mm 2 mps 658 mmHg 25%
    06:00 +4°C° 0 mm 2 mps 658 mmHg 25%
    07:00 +4°C° 0 mm 2 mps 658 mmHg 24%
    08:00 +7°C° 0 mm 1 mps 659 mmHg 21%
    09:00 +10°C° 0 mm 1 mps 659 mmHg 18%
    10:00 +12°C° 0 mm 1 mps 660 mmHg 15%
    11:00 +12°C° 0 mm 1 mps 659 mmHg 15%
    12:00 +13°C° 0 mm 2 mps 659 mmHg 15%
    13:00 +13°C° 0 mm 2 mps 658 mmHg 15%
    14:00 +12°C° 0 mm 2 mps 658 mmHg 19%
    15:00 +10°C° 0 mm 2 mps 657 mmHg 22%
    16:00 +10°C° 0 mm 1 mps 657 mmHg 25%
    17:00 +9°C° 0 mm 1 mps 656 mmHg 26%
    18:00 +9°C° 0 mm 1 mps 656 mmHg 27%
    19:00 +8°C° 0 mm 1 mps 656 mmHg 27%
    20:00 +8°C° 0 mm 1 mps 656 mmHg 27%
    21:00 +8°C° 0 mm 1 mps 655 mmHg 27%
    22:00 +7°C° 0 mm 1 mps 655 mmHg 26%
    23:00 +7°C° 0 mm 1 mps 654 mmHg 26%

    19 December, Wednesday

    Time Temperature Precipitation Wind Pressure Humidity
    00:00 +7°C° 0 mm 1 mps 654 mmHg 26%
    01:00 +6°C° 0 mm 1 mps 653 mmHg 25%
    02:00 +6°C° 0 mm 1 mps 653 mmHg 25%
    03:00 +6°C° 0 mm 1 mps 653 mmHg 26%
    04:00 +5°C° 0 mm 1 mps 652 mmHg 26%
    05:00 +5°C° 0 mm 1 mps 653 mmHg 26%
    06:00 +5°C° 0 mm 1 mps 653 mmHg 26%
    07:00 +5°C° 0 mm 1 mps 653 mmHg 26%
    08:00 +7°C° 0 mm 1 mps 654 mmHg 23%
    09:00 +9°C° 0 mm 1 mps 655 mmHg 20%
    10:00 +11°C° 0 mm 1 mps 656 mmHg 17%
    11:00 +12°C° 0 mm 2 mps 655 mmHg 18%
    12:00 +12°C° 0 mm 2 mps 655 mmHg 18%
    13:00 +11°C° 0 mm 3 mps 655 mmHg 18%
    14:00 +10°C° 0 mm 3 mps 655 mmHg 22%
    15:00 +9°C° 0 mm 3 mps 655 mmHg 26%
    16:00 +8°C° 0 mm 3 mps 656 mmHg 30%
    17:00 +7°C° 0 mm 2 mps 656 mmHg 33%
    18:00 +7°C° 0 mm 2 mps 656 mmHg 36%
    19:00 +6°C° 0 mm 2 mps 657 mmHg 39%
    20:00 +5°C° 0 mm 2 mps 657 mmHg 42%
    21:00 +5°C° 0 mm 2 mps 657 mmHg 44%
    22:00 +4°C° 0 mm 2 mps 658 mmHg 47%
    23:00 +4°C° 0 mm 2 mps 658 mmHg 50%

    20 December, Thursday

    Time Temperature Precipitation Wind Pressure Humidity
    00:00 +3°C° 0 mm 2 mps 658 mmHg 53%
    01:00 +4°C° 0 mm 1 mps 658 mmHg 56%
    02:00 +4°C° 0 mm 1 mps 658 mmHg 57%
    03:00 +3°C° 0 mm 1 mps 658 mmHg 59%
    04:00 +3°C° 0 mm 1 mps 658 mmHg 61%
    05:00 +3°C° 0 mm 1 mps 658 mmHg 61%
    06:00 +2°C° 0 mm 1 mps 659 mmHg 62%
    07:00 +2°C° 0 mm 1 mps 659 mmHg 63%
    08:00 +4°C° 0 mm 1 mps 659 mmHg 56%
    09:00 +5°C° 0 mm 1 mps 660 mmHg 50%
    10:00 +7°C° 0 mm 1 mps 660 mmHg 43%
    11:00 +6°C° 0 mm 2 mps 659 mmHg 41%
    12:00 +7°C° 0 mm 2 mps 659 mmHg 38%
    13:00 +8°C° 0 mm 2 mps 658 mmHg 36%
    14:00 +7°C° 0 mm 2 mps 658 mmHg 38%
    15:00 +7°C° 0 mm 2 mps 658 mmHg 40%
    16:00 +7°C° 0 mm 2 mps 658 mmHg 42%
    17:00 +6°C° 0 mm 2 mps 657 mmHg 44%
    18:00 +5°C° 0 mm 2 mps 657 mmHg 45%
    19:00 +4°C° 0 mm 2 mps 657 mmHg 47%
    20:00 +4°C° 0 mm 2 mps 657 mmHg 46%
    21:00 +4°C° 0 mm 2 mps 657 mmHg 45%
    22:00 +4°C° 0 mm 2 mps 656 mmHg 44%
    23:00 +4°C° 0 mm 2 mps 656 mmHg 43%
    Show more